Regional Weather Roundup
Issued by NWS

Home | Current Version | Previous Version | Graphics & Text | Print | Product List | Glossary On
Versions: 1 2 3 4 5 6 7 8 9 10 11 12 13 14 15 16 17 18 19 20 21 22 23 24 25 26 27 28 29 30 31 32 33 34 35 36 37 38 39 40 41 42 43 44 45 46 47 48 49 50
000
ASUS43 KFSD 280710
RWRSD

WEATHER ROUNDUP FOR SOUTH DAKOTA
NATIONAL WEATHER SERVICE SIOUX FALLS SD
200 AM CDT TUE MAR 28 2017

NOTE: "FAIR" INDICATES FEW OR NO CLOUDS BELOW 12,000 FEET WITH NO
SIGNIFICANT WEATHER AND/OR OBSTRUCTIONS TO VISIBILITY.


SDZ001>005-009-010-012>017-280800-
NORTHWEST AND NORTH CENTRAL SOUTH DAKOTA

CITY           SKY/WX    TMP DP  RH WIND       PRES   REMARKS
BUFFALO          N/A     42  34  73 SE5       29.90S
FAITH            N/A     42  34  73 MISG      29.97S
MOBRIDGE       CLEAR     40  31  70 SE6       29.99S
$$

SDZ012>016-024>037-041>051-057-063-072>074-280800-
SOUTHWEST AND SOUTH CENTRAL SOUTH DAKOTA

CITY           SKY/WX    TMP DP  RH WIND       PRES   REMARKS
RAPID CTY ARPT CLOUDY    39  32  76 N8        29.95R
PIERRE         CLEAR     38  32  79 E8        29.98S
CUSTER         CLOUDY    39  31  72 NE6       29.94F
ELLSWORTH AFB  CLOUDY    44  33  66 CALM      29.95R
PHILIP         CLEAR     39  31  72 E6        29.96R
PINE RIDGE     CLOUDY    44  39  82 NE6       29.90S
SPEARFISH      FAIR      39  34  81 E9        29.95R
WINNER         FAIR      46  38  73 SE8       29.98R
$$

SDZ004>011-016>023-039-040-280800-
NORTHEAST SOUTH DAKOTA

CITY           SKY/WX    TMP DP  RH WIND       PRES   REMARKS
ABERDEEN       PTCLDY    35  32  88 NE3       30.04S
WATERTOWN      CLOUDY    41  36  82 CALM      30.04R
BROOKINGS      MOCLDY    39  35  86 E3        30.04R
SISSETON         N/A     32  30  92 NW6       30.06R WCI  26
$$

SDZ017-020-022-023-036>040-048>070-280800-
SOUTHEAST SOUTH DAKOTA

CITY           SKY/WX    TMP DP  RH WIND       PRES   REMARKS
SIOUX FALLS    PTCLDY    38  36  92 CALM      30.05R
HURON          PTCLDY    41  37  86 SE9       30.03R
CHAMBERLAIN    CLOUDY    48  40  74 E8        30.00S
MITCHELL       CLEAR     37  35  92 E5        30.05R
YANKTON        CLOUDY    41  37  87 SE3       30.04S
$$

ABBREVIATIONS USED IN REMARKS
   TC - TEMPERATURE IN CELSIUS
  WCI - WIND CHILL INDEX
   HX - HEAT INDEX
  VSB - VISIBILITY





USA.gov is the U.S. government's official web portal to all federal, state and local government web resources and services.